Regional Weather Roundup
Issued by NWS

Home | Current Version | Previous Version | Text Only | Print | Product List | Glossary Off
Versions: 1 2 3 4 5 6 7 8 9 10 11 12 13 14 15 16 17 18 19 20 21 22 23 24 25 26 27 28 29 30 31 32 33 34 35 36 37 38 39 40 41 42 43 44 45 46 47 48 49 50

972
ASUS43 KLOT 291603
RWRIL

ILLINOIS REGIONAL WEATHER ROUNDUP
NATIONAL WEATHER SERVICE CHICAGO/ROMEOVILLE IL
1100 AM CDT MON AUG 29 2016

NOTE: "FAIR" INDICATES FEW OR NO CLOUDS BELOW 12,000 FEET WITH NO
SIGNIFICANT WEATHER AND/OR OBSTRUCTIONS TO VISIBILITY.

* THESE STATIONS ARE NOT UNDER NWS QUALITY CONTROL. THEY ALSO MAY NOT
  REPORT WEATHER SUCH AS PRECIPITATION OR FOG.

ILZ001-002-007-009-015-016-024-291700-
NORTHWEST ILLINOIS

CITY           SKY/WX    TMP DP  RH WIND       PRES   REMARKS
MOLINE         SUNNY     80  72  76 E5        30.23R HX  84
STERLING*      SUNNY     80  73  79 VRB3      30.24S HX  84
SAVANNA*       PTSUNNY   79  71  75 CALM      30.24S HX  82
$$

ILZ003-004-008-010-011-017-018-291700-
NORTH CENTRAL ILLINOIS

CITY           SKY/WX    TMP DP  RH WIND       PRES   REMARKS
ROCKFORD       CLOUDY    81  71  71 SE8       30.26R HX  85
FREEPORT*      CLOUDY    77  70  78 E3        30.27S
ROCHELLE*      MOSUNNY   80  71  74 SE7       30.26S HX  83
$$

ILZ005-006-012>014-019>023-291700-
NORTHEAST ILLINOIS

CITY           SKY/WX    TMP DP  RH WIND       PRES   REMARKS
CHICAGO-OHARE  PTSUNNY   82  70  66 SE8       30.25R HX  86
CHICAGO-MIDWAY PTSUNNY   83  70  64 E8        30.25R HX  87
AURORA         PTSUNNY   84  70  62 SE8       30.25S HX  88
LANSING*       SUNNY     82  73  73 SE5       30.25S HX  87
JOLIET*        MOSUNNY   83  74  73 SE7       30.25S HX  89
WAUKEGAN       SUNNY     78  68  71 VRB6      30.26S HX  80
DUPAGE AIRPORT SUNNY     83  69  62 SE6       30.25R HX  86
KANKAKEE*      MOSUNNY   79  73  80 CALM      30.26S HX  82
WHEELING       SUNNY     80  71  74 E7        30.27R HX  84
MORRIS*        PTSUNNY   79  73  80 SE5       30.24S HX  83
ROMEOVILLE*    MOSUNNY   81  74  80 SE6       30.26R HX  87
$$

LMZ740>746-291700-
SOUTHERN LAKE MICHIGAN

STATION/POSITION SKY/WX   TEMP    WIND        PRES    VSBY  WAVE
                          AIR SEA DIR/SP/G                  HT/PER
                          (F)     (DEG/KT/KT) (MB)    (MI)  (FT/S)
SOUTHERN BUOY              73 75  100/  8/ 10 1023.8          0
WILMETTE HARBOR            74 71  300/  2/  2   N/A           1/ 2
HARRISON CRIB              76     120/  7/  8   N/A
BURNHAM HARBOR             78      CALM  /  4   N/A
CALUMET HARBOR             75      80/  5/  8 1023.8R
BURNS HARBOR               80     120/  5/ 13 1024.7R
MICHIGAN CITY              77     100/  8/ 10   N/A
MICHIGAN CITY 6N           76 76  130/  4/  6   N/A           1/ 3
ST. JOSEPH                 76 75  120/ 10/ 14 1024.0S         1
$$

ILZ025>027-034>036-040-047-049-050-058-095>099-291700-
WEST-CENTRAL ILLINOIS

CITY           SKY/WX    TMP DP  RH WIND       PRES   REMARKS
QUINCY         SUNNY     86  73  65 S5        30.22R HX  93
GALESBURG*     SUNNY     83  74  72 SE5       30.23S HX  90
MACOMB*        SUNNY     81  75  82 CALM      30.25S HX  87
JACKSONVILLE*  SUNNY     85  76  74 CALM      30.22S HX  94
PITTSFIELD*    SUNNY     86  77  75 CALM      30.23S HX  97
$$

ILZ028>032-037-038-041>044-048-051>054-059>061-291700-
CENTRAL ILLINOIS

CITY           SKY/WX    TMP DP  RH WIND       PRES   REMARKS
PONTIAC        SUNNY     82  76  82 E3        30.25S HX  89
BLOOMINGTON    SUNNY     83  75  77 E5        30.25S HX  90
DECATUR        SUNNY     82  71  69 SE7       30.24R HX  86
PEORIA         MOSUNNY   82  74  76 E3        30.23R HX  88
LACON*         PTSUNNY   80  73  78 CALM      30.24R HX  84
LINCOLN*       SUNNY     85  75  71 CALM      30.23R HX  94
SPRINGFIELD    SUNNY     87  73  62 NE5       30.23R HX  94
TAYLORVILLE    SUNNY     83  73  72 E3        30.23S HX  89
$$

ILZ033-039-045-046-055>057-062-063-291700-
EAST-CENTRAL ILLINOIS

CITY           SKY/WX    TMP DP  RH WIND       PRES   REMARKS
CHAMPAIGN      SUNNY     81  73  76 E8        30.25S HX  86
RANTOUL*       SUNNY     82  73  75 SE8       30.25S HX  87
MATTOON        SUNNY     82  70  66 SE8       30.24R HX  86
PARIS*         SUNNY     82  74  76 CALM      30.26S HX  88
$$

ILZ079-100>102-291700-
SOUTHWEST ILLINOIS

CITY           SKY/WX    TMP DP  RH WIND       PRES   REMARKS
ALTON          SUNNY     82  75  78 NE3       30.22S HX  89
BELLEVILLE     SUNNY     87  76  70 CALM      30.19F HX  97
CAHOKIA*       SUNNY     88  74  63 E3        30.20S HX  96
SPARTA*        SUNNY     85  77  77 NE3       30.21S HX  95
$$

ILZ064>066-069>071-074>076-080>082-084>086-088>090-092>094-291700-
SOUTH-CENTRAL ILLINOIS

CITY           SKY/WX    TMP DP  RH WIND       PRES   REMARKS
CARBONDALE     SUNNY     85  74  69 E5        30.20R HX  92
EFFINGHAM*     SUNNY     83  74  75 E3        30.25S HX  89
MARION         SUNNY     86  72  62 E6        30.21S HX  92
MT. VERNON     SUNNY     84  72  65 S5        30.22S HX  89
CENTRALIA*     MOSUNNY   85  76  74 CALM      30.21S HX  94
SALEM*         MOSUNNY   85  73  67 CALM      30.22S HX  92
METROPOLIS*    SUNNY     87  71  59 E3        30.19S HX  92
$$

ILZ067-068-072-073-078-083-087-091-291700-
SOUTHEAST ILLINOIS

CITY           SKY/WX    TMP DP  RH WIND       PRES   REMARKS
LAWRENCEVILLE  MOSUNNY   84  70  62 E7        30.23S HX  88
FLORA*         SUNNY     84  74  71 E5        30.23R HX  90
FAIRFIELD*     PTSUNNY   84  72  67 CALM      30.21S HX  89
HARRISBURG*    SUNNY     85  72  64 E6        30.20S HX  91
ROBINSON*      SUNNY     82  72  70 E5        30.24S HX  87
CARMI*         SUNNY     85  72  65 CALM      30.21S HX  91
$$

ABBREVIATIONS USED IN REMARKS
   TC - TEMPERATURE IN CELSIUS
  WCI - WIND CHILL INDEX
   HX - HEAT INDEX
  VSB - VISIBILITY
$$





USA.gov is the U.S. government's official web portal to all federal, state and local government web resources and services.